Regional Weather Roundup
Issued by NWS Sterling, VA

Home | Current Version | Previous Version | Graphics & Text | Print | Product List | Glossary On
Versions: 1 2 3 4 5 6 7 8 9 10 11 12 13 14 15 16 17 18 19 20 21 22 23 24 25 26 27
000
ASUS41 KLWX 240710
RWRLWX

REGIONAL WEATHER ROUNDUP
NATIONAL WEATHER SERVICE BALTIMORE MD/WASHINGTON DC
300 AM EDT WED AUG 24 2016

Note: "FAIR" indicates few or no clouds below 12,000 feet
with no significant weather and/or obstructions to visibility.
 TC=TEMPERATURE CELSIUS

 * =Non NWS site. Station does not report precipitation (e.g. rain,
    snow, etc.), thunder, or fog.

DCZ001-MDZ009-015-VAZ040>042-051-053>054-240800-
WASHINGTON METRO

CITY           SKY/WX    TMP DP  RH WIND       PRES   REMARKS
WASHINGTON NAT PTCLDY    70  63  78 S5        30.29S
DULLES         CLEAR     64  60  87 CALM      30.29F
ANDREWS AFB    CLEAR     62  58  86 S5        30.28S
FT BELVOIR     CLEAR     63  61  95 CALM      30.29S
QUANTICO       PTCLDY    69  60  73 W3        30.29F
COLLEGE PARK*  PTCLDY    61  59  94 CALM      30.28S
LEESBURG*      CLEAR     68  63  83 CALM      30.30F
MANASSAS*      PTCLDY    64  64 100 CALM      30.29F
GAITHERSBURG*  CLEAR     61  55  82 CALM      30.33S

$$

MDZ006>007-011-014-240800-
BALTIMORE METRO

CITY           SKY/WX    TMP DP  RH WIND       PRES   REMARKS
BWI AIRPORT    PTCLDY    63  59  87 CALM      30.28S
MD SCIENCE CTR   N/A     71  58  63 MISG      30.28F
MARTIN STATE   CLEAR     64  64 100 CALM      30.29S
ANNAPOLIS      CLEAR     70  62  76 CALM      30.27F
FORT MEADE*    CLEAR     59  57  94 CALM      30.31S

$$

MDZ012-015-019>023-240800-
MARYLAND EASTERN SHORE

CITY           SKY/WX    TMP DP  RH WIND       PRES   REMARKS
OCEAN CITY     CLEAR     60  58  92 CALM      30.29F
SALISBURY      CLEAR     60  57  89 CALM      30.29F
BAY BRIDGE AP* CLEAR     72  64  78 S3        30.28S
CAMBRIDGE*     CLEAR     61  59  94 CALM      30.28S
EASTON*        CLEAR     66  63  89 CALM      30.32S

$$

MDZ017>025-240800-
SOUTHERN MARYLAND

CITY           SKY/WX    TMP DP  RH WIND       PRES   REMARKS
PATUXENT RIVER CLEAR     63  60  90 SW3       30.28S
ST INIGOES     CLEAR     65  62  90 CALM      30.28S
LEONARDTOWN*   CLEAR     63  59  88 CALM      30.30S

$$

MDZ003>005-240800-
NORTH CENTRAL MARYLAND

CITY           SKY/WX    TMP DP  RH WIND       PRES   REMARKS
FREDERICK*     CLEAR     61  61 100 CALM      30.31S
HAGERSTOWN APT CLEAR     68  59  73 SE6       30.28S

$$

MDZ501>502-240800-
WESTERN MARYLAND

CITY           SKY/WX    TMP DP  RH WIND       PRES   REMARKS
OAKLAND*       CLEAR     59  57  94 S7        30.33F
CUMBERLAND*    CLEAR     63  63 100 CALM      30.31S

$$

VAZ025>031-240800-
SHENANDOAH VALLEY

CITY           SKY/WX    TMP DP  RH WIND       PRES   REMARKS
WINCHESTER*    PTCLDY    64  61  88 CALM      30.27F
FRONT ROYAL*   FAIR      63  63 100 CALM      30.27F
LURAY*         FAIR     N/A N/A N/A CALM      30.29S
NEW MARKET*    FAIR     N/A N/A N/A CALM      30.29F
STAUNTON*      CLOUDY    60  59  97 CALM      30.32F
WAYNESBORO*    FAIR      63  60  89 CALM      30.32S

$$

WVZ021-048>050-054>055-240800-
EASTERN WEST VIRGINIA PANHANDLE

CITY           SKY/WX    TMP DP  RH WIND       PRES   REMARKS
MARTINSBURG    CLEAR     62  60  93 CALM      30.27F
PETERSBURG*    CLOUDY    60  59  97 CALM      30.28F

$$

VAZ036>039-050-240800-
CENTRAL FOOTHILLS

CITY           SKY/WX    TMP DP  RH WIND       PRES   REMARKS
CHARLOTTESVILL CLOUDY    65  63  93 CALM      30.30S
CULPEPER*      PTCLDY    63  63 100 CALM      30.30S FOG
ORANGE*          N/A     63  63 100 CALM      30.31S
GORDONSVILLE*  CLOUDY    63  63 100 CALM      30.30S
WARRENTON*     FAIR      62  57  83 CALM      30.28F

$$

VAZ055>057-240800-
NORTH AND CENTRAL PIEDMONT

CITY           SKY/WX    TMP DP  RH WIND       PRES   REMARKS
FREDERICKSBRG* PTCLDY    65  65 100 CALM      30.28S
STAFFORD*      PTCLDY    62  61  97 CALM      30.33S

$$

NCZ024-NYZ072-PAZ021-071-VAZ022-071-240800-
OTHER REGIONAL OBSERVATIONS

CITY           SKY/WX    TMP DP  RH WIND       PRES   REMARKS
NEW YORK CITY  CLEAR     70  57  63 W3        30.29F
PHILADELPHIA   CLEAR     69  61  75 W6        30.29S
PITTSBURGH     CLEAR     62  58  86 CALM      30.23F
ROANOKE        CLEAR     65  63  93 CALM      30.32F
RICHMOND       CLEAR     65  60  84 CALM      30.28F
RALEIGH        PTCLDY    70  61  73 SE6       30.28F

$$

ANZ530>537-240800-
MARINE OBSERVATIONS

STATION/POSITION TIME  TEMP    WIND        PRES
                       AIR SEA DIR/SP/G
                 (UTC) (F)     (DEG/KT/KT) (MB)
THOMAS PT LIGHT  0700   74 82  220/ 11/ 12 1026.6F
BALT KEY BRIDGE  0648          230/  4/  5 1025.2F
COVE POINT       0648          250/  7/ 10 1025.9F
LEWISETTA        0648      81  230/  4/  5 1025.1S
SOLOMONS ISLAND  0648      84  220/  5/  7   N/A
PINEY POINT      0648          230/  7/  8   N/A

$$





USA.gov is the U.S. government's official web portal to all federal, state and local government web resources and services.